GFSGBSN_prec_radar_165.txt.gz
Reflectivity
-7 -4 -18 -20 -20 -20 -20 -6 -5 5 -20 -20 -20 -20 -20 -20 -20 -20 -20 -20 -20 -20 -20 -20 -20 -20 -20 -20 -20 -20 -20 -20 -20 -20 -20 -20 -20 -20 -20 -20 -20 -20 -20 -20 -20 -20 -20
-11 -3 -15 -20 -20 -20 -20 -18 -19 6 -20 -20 -20 -20 -20 -20 -20 -20 -20 -20 -20 -20 -20 -20 -20 -20 -20 -20 -20 -20 -20 -20 -20 -20 -20 -20 -20 -20 -20 -20 -20 -20 -20 -20 -20 -20 -20
-20 -16 0 -9 -20 -20 -20 -20 -13 -2 3 -15 -20 -20 -20 -20 -20 -20 -20 -20 -20 -20 -20 -20 -20 -20 -20 -20 -20 -20 -20 -20 -20 -20 -20 -20 -20 -20 -20 -20 -20 -20 -20 -20 -20 -20 -20
-16 -17 -16 -20 -20 8 17 19 4 -0 12 11 -20 -20 -20 -20 -20 -20 -20 -20 -20 -20 -20 -20 -20 -20 -20 -20 -20 -20 -20 -20 -20 -20 -20 -20 -20 -20 -20 -20 -20 -20 -20 -20 -20 -20 -20
-20 -2 11 -1 -2 4 5 -2 11 14 12 9 -20 -20 -20 -20 -20 -20 -20 -20 -20 -20 -20 -20 -20 -20 -20 -20 -20 -20 -20 -20 -20 -20 -20 -20 -20 -20 -20 -20 -20 -20 -20 -20 -20 -20 -20
-20 -20 -20 -20 -20 -20 -7 -16 7 5 -8 10 3 -13 -20 -20 -20 -20 -20 -20 -20 -20 -20 -20 -20 -20 -20 -20 -20 -20 -20 -20 -20 -20 -20 -20 -20 -20 -20 -20 -20 -20 -20 -20 -20 -20 -20
-20 -20 -20 -20 -20 -20 -20 -20 -20 -20 5 6 10 -13 -4 -20 -20 -20 -20 -20 -20 -20 -20 -20 -20 -20 -20 -20 -20 -20 -20 -20 -20 -20 -20 -20 -20 -20 -20 -20 -20 -20 -20 -20 -20 -20 -20
11 -14 -20 -20 -18 1 -15 -20 -15 -20 -20 -20 -18 -7 -20 -20 -20 -20 -20 -20 -20 -20 -20 -20 -20 -20 -20 -20 -20 -20 -20 -20 -20 -20 -20 -20 -20 -20 -20 -20 -20 -20 -20 -20 -20 -20 -20
-20 -20 -5 -20 -20 -20 -20 -1 -9 -20 -20 -20 -20 -20 -20 -20 -20 -20 -20 -20 -20 -20 -20 -20 -20 -20 -20 -20 -20 -20 -20 -20 -20 -20 -20 -20 -20 -20 -20 -20 -20 -20 -20 -20 -20 -20 -20
7 9 -18 -14 -14 4 -20 -20 -20 -20 -20 -20 -20 -20 -20 -20 -20 -20 -20 -20 -20 -20 -20 -20 -20 -20 -20 -20 -20 -20 -20 -20 -20 -20 -20 -20 -20 -20 -20 -20 -20 -20 -20 -20 -20 -20 -20
-13 11 7 8 10 -18 -20 -20 -20 -20 -20 -20 -20 -20 -20 -20 -20 -20 -20 -20 -20 -20 -20 -20 -20 -20 -20 -20 -20 -20 -20 -20 -20 -20 -20 -20 -20 -20 -20 -20 -20 -20 -20 -20 -20 -20 -20
-20 -20 4 -4 15 -7 11 -20 -20 -20 -20 -20 -20 -20 -20 -20 -20 -20 -20 -20 -20 -20 -20 -20 -20 -20 -20 -20 -20 -20 -20 -20 -20 -20 -20 -20 -20 -20 -20 -20 -20 -20 -20 -20 -20 -20 -20
-20 -20 -20 -20 4 -14 13 9 -20 -20 -20 -20 -20 -20 -20 -20 -20 -20 -20 -20 -20 -20 -20 -20 -20 -20 -20 -20 -20 -20 -20 -20 -20 -20 -20 -20 -20 -20 -20 -20 -20 -20 -20 -20 -20 -20 -20
-20 -20 -20 -20 -20 -20 -19 5 13 -20 -20 -20 -20 -20 -20 -20 -20 -20 -20 -20 -20 -20 -20 -20 -20 -20 -20 -20 -20 -20 -20 -20 -20 -20 -20 -20 -20 -20 -20 -20 -20 -20 -20 -20 -20 -20 -20
-20 -20 -20 -20 -20 -20 -20 -20 -5 11 11 -15 -20 -20 -20 -20 -20 -20 -20 -20 -20 -20 -20 -20 -20 -20 -20 -20 -20 -20 -20 -20 -20 -20 -20 -20 -20 -20 -20 -20 -20 -7 -5 -20 1 -20 -20
-20 -13 -16 -20 -20 -20 -20 -20 -13 14 19 14 -3 -20 -20 -20 -20 -20 -20 -20 -20 -20 -20 -20 -20 -20 -20 -20 -20 -20 -20 -20 -20 -20 -20 -20 -20 -20 -20 -20 -20 -20 -19 -14 4 -1 -20
-20 -20 -20 -20 -20 -20 -20 -20 -20 7 27 17 3 29 -20 -20 -20 -6 -17 -20 -20 -20 -20 -20 -20 -20 -20 -20 -20 -20 -20 -20 -20 -20 -20 -20 -20 -20 -20 -20 -20 -5 -1 -18 -20 -20 -20
-20 -20 -20 -20 -20 -20 -20 -20 -20 -17 25 25 29 14 -20 -20 -6 -20 -20 -20 -20 -20 -20 -20 -20 -20 -20 -20 -20 -20 -20 -20 -20 -20 -20 -20 -20 -20 -20 -20 -20 -20 -20 -20 -20 -20 -20
-20 -20 -20 -20 -20 -20 -20 -20 -20 -20 24 28 16 -8 20 -20 -20 -20 -20 -20 -20 -20 -20 -20 -20 -20 -20 -20 -20 -20 -20 -20 -20 -20 -20 -20 -20 -20 -20 -20 -20 -20 -20 -20 -20 -20 -20
-9 -20 -20 -20 -7 -20 -20 -20 -20 -8 21 24 38 25 23 19 -20 -20 -20 -20 -20 -20 -20 -20 -20 -20 -20 -20 -20 -20 -20 -20 -20 -20 -20 -20 -20 -20 -20 -20 -20 -20 -20 -20 -20 -20 -20
-13 -9 -20 -20 -20 -20 -20 -20 -6 12 10 25 38 24 20 16 11 -1 -20 -20 -20 -20 -20 -20 -20 -20 -20 -20 -20 -20 -20 -20 -20 -20 -20 -20 -20 -20 -20 -20 -20 -20 -20 -20 -20 -20 -20
-20 1 13 -11 -20 -20 -20 -20 -20 14 11 31 21 30 37 13 -1 2 -19 -20 -20 -20 -20 -20 -1 -20 -20 -20 -20 -20 -20 -20 -20 -20 -20 -20 -20 -20 -20 -20 -20 -20 -20 -20 -20 -20 -20
-20 -14 -4 -20 -20 -2 -13 -20 -10 -9 10 30 33 29 32 21 14 13 -2 -20 -20 -17 -20 -20 -20 -20 -20 -20 -20 -20 -20 -20 -20 -20 -20 -19 -20 -20 -20 -20 -20 -20 -20 -20 -20 -20 -20
-20 -20 -20 -10 -14 -20 -15 6 -5 -4 18 12 29 27 31 25 13 -13 -3 9 -5 -20 -20 -20 1 -5 -20 -9 -20 -20 -20 -20 -20 -20 -20 -20 -20 -20 -20 -16 -20 -20 -20 -20 -20 -20 -20
-20 -20 -20 -20 3 7 5 -11 12 11 -20 15 13 27 38 24 11 6 14 -13 -2 -20 -20 -20 -14 -16 13 -9 0 -20 -20 -20 -20 -20 -20 -20 -20 -20 6 -19 -20 -20 -20 -20 -20 -20 -20
-20 -20 -3 -18 -20 -20 -20 -18 7 10 -20 8 18 25 32 29 28 11 20 13 -15 -20 -20 -20 -20 7 8 26 8 -20 -20 -20 -20 -19 -20 -20 -20 -20 -19 1 -12 -20 -20 -20 -20 -20 -20
4 -5 8 -1 -17 -20 -20 -20 -1 -20 -20 13 18 15 28 25 23 12 24 13 -20 -20 -20 -20 -2 -1 27 -16 -20 -20 -20 -20 -20 -20 -20 -20 -20 -20 -20 1 -18 -20 -20 -20 -20 -20 -20
16 9 -4 -8 14 -1 6 -1 -20 5 -20 -2 -17 8 14 32 26 12 8 -9 -20 -20 -20 -20 -17 -16 -20 -20 -20 -20 -20 -20 -20 -20 -20 -20 1 -15 -8 -2 -6 -20 -20 -20 -20 -20 -20
12 12 -13 -17 17 -20 -20 -19 -20 -20 -20 14 10 -17 17 35 34 23 5 -18 -20 -20 -20 -20 -20 3 23 -19 -20 -20 -20 -20 -11 -15 -20 -0 13 21 27 13 10 2 -20 -20 -7 -20 -20

GFSGBSN_prec_radar_168.txt.gz
Reflectivity
-13 -16 -13 -19 -20 -20 -20 -20 -3 2 4 -20 -19 -20 -20 -20 -20 -20 -20 -20 -20 -20 -20 -20 -20 -20 -20 -20 -20 -20 -20 -20 -20 -20 -20 -20 -20 -20 -20 -20 -20 -20 -20 -20 -20 -20 -20
5 10 10 4 9 9 -7 2 12 11 12 1 13 12 -20 -20 -20 -20 -20 -20 -20 -20 -20 -20 -20 -20 -20 -20 -20 -20 -20 -20 -20 -20 -20 -20 -20 -20 -20 -20 -20 -20 -20 -20 -20 -20 -20
-20 -20 -20 12 13 15 8 4 8 -1 10 -4 1 7 -20 -20 -20 -20 -20 -20 -20 -20 -20 -20 -20 -20 -20 -20 -20 -20 -20 -20 -20 -20 -20 -20 -20 -20 -20 -20 -20 -20 -20 -20 -20 -20 -20
-20 -17 -7 6 3 8 13 10 -0 7 15 7 4 6 -16 -20 -20 -20 -20 -20 -20 -20 -20 -20 -20 -20 -20 -20 -20 -20 -20 -20 -20 -20 -20 -20 -20 -20 -20 -20 -20 -20 -20 -20 -20 -20 -20
-20 -20 -20 -7 -8 4 4 3 2 14 9 15 4 -5 -19 -20 -20 -20 -20 -20 -20 -20 -20 -20 -20 -20 -20 -20 -20 -20 -20 -20 -20 -20 -20 -20 -20 -20 -20 -20 -20 -20 -20 -20 -20 -20 -20
-20 -20 -20 -20 -19 -20 -15 6 4 10 13 13 10 -20 -20 -20 -20 -20 -20 -20 -20 -20 -20 -20 -20 -20 -20 -20 -20 -20 -20 -20 -20 -20 -20 -20 -20 -20 -20 -20 -20 -20 -20 -20 -20 -20 -20
-20 -20 -20 -20 -20 -20 -20 -20 1 7 4 5 -3 -13 -20 -20 -20 -20 -20 -20 -20 -20 -20 -20 -20 -20 -20 -20 -20 -20 -20 -20 -20 -20 -20 -20 -20 -20 -20 -20 -20 -20 -20 -20 -20 -20 -20
-17 -20 -20 -20 -20 -20 -20 -20 -20 -20 -20 -5 8 5 -10 -20 -20 -20 -20 -20 -20 -20 -20 -20 -20 -20 -20 -20 -20 -20 -20 -20 -20 -20 -20 -20 -20 -20 -20 -20 -20 -20 -20 -20 -20 -20 -20
-20 -9 -1 -20 -20 -20 -20 -20 -20 -20 -20 -20 -20 -20 -7 -12 -20 -20 -20 -20 -20 -20 -20 -20 -20 -20 -20 -20 -20 -20 -20 -20 -20 -20 -20 -20 -20 -20 -20 -20 -20 -20 -20 -20 -20 -20 -20
-4 5 -20 -20 10 -20 -20 -20 -20 -17 1 -18 -20 -20 -20 -20 -20 -20 -20 -20 -20 -20 -20 -20 -20 -20 -20 -20 -20 -20 -20 -20 -20 -20 -20 -20 -20 -20 -20 -20 -20 -20 -20 -20 -20 -20 -20
-20 -19 -17 -15 -20 -20 -8 -20 -20 -20 -20 -20 -20 -20 -20 -20 -20 -20 -20 -20 -20 -20 -20 -20 -20 -20 -20 -20 -20 -20 -20 -20 -20 -20 -20 -20 -20 -20 -20 -20 -20 -20 -20 -20 -20 -20 -20
-20 -20 -20 -20 -5 5 -20 -20 -20 -20 -20 -20 -20 -20 -20 -20 -20 -20 -20 -20 -20 -20 -20 -20 -20 -20 -20 -20 -20 -20 -20 -20 -20 -20 -20 -20 -20 -20 -20 -20 -20 -20 -20 -20 -20 -20 -20
-20 -20 -20 -20 -20 -20 -20 -16 2 -7 -20 -20 -20 -20 -20 -20 -20 -20 -20 -20 -20 -20 -20 -20 -20 -20 -20 -20 -20 -20 -20 -20 -20 -20 -20 -20 -20 -20 -20 -20 -20 -20 -20 -20 -20 -20 -20
-20 -20 -20 -20 -20 -20 -20 -20 -20 15 3 6 -20 -20 -20 -20 -20 -20 -20 -20 -20 -20 -20 -20 -20 -20 -20 -20 -20 -20 -20 -20 -20 -20 -20 -20 -20 -20 -20 -20 -20 -20 -20 -20 -20 -20 -20
-20 -20 -20 -20 -20 -20 -20 -20 -20 -20 -1 18 -5 -20 -20 -20 -20 -20 -20 -20 -20 -20 -20 -20 -20 -20 -20 -20 -20 -20 -20 -20 -20 -20 -20 -20 -20 -20 -20 -20 -20 -20 -20 -20 -20 -20 -20
-20 -20 -20 -20 -20 -20 -20 -20 -20 -20 -20 22 -2 -20 -20 -20 -20 -20 -20 -20 -20 -20 -20 -20 -20 -20 -20 -20 -20 -20 -20 -20 -20 -20 -20 -20 -20 -20 -20 -20 -20 -20 -20 -20 -20 -20 -20
-20 -20 -20 -20 -20 -20 -20 -20 -20 -20 -20 15 13 -10 -14 -20 -20 4 -20 -20 -20 -20 -20 -20 -20 -20 -20 -20 -20 -20 -20 -20 -20 -20 -20 -20 -20 -20 -20 -20 -20 -20 -20 -20 -20 -20 -20
-20 -20 -20 -20 -20 -20 -20 -20 -20 -20 -4 23 12 9 12 -20 -7 -18 -20 -20 -20 -20 -20 -20 -20 -20 -20 -20 -20 -20 -20 -20 -20 -20 -20 -20 -20 -20 -20 -20 -20 -20 -20 -20 -20 -20 -20
-16 -20 -20 -20 -20 -20 -20 -20 -6 -20 5 17 15 23 27 -15 -12 -20 -20 -20 -20 -20 -20 -20 -20 -20 -20 -20 -20 -20 -20 -20 -20 -20 -20 -20 -20 -20 -20 -20 -20 -20 -20 -20 -20 -20 -20
-20 -20 -20 -20 -20 -20 -20 -19 -20 -20 2 21 31 10 34 27 -3 -20 -20 -20 -20 -20 -20 -20 -20 -20 -20 -20 -20 -20 -20 -20 -20 -20 -20 -20 -20 -20 -20 -20 -20 -20 -20 -20 -20 -20 -20
-20 -20 -14 -14 -20 -20 -20 -20 -20 -20 9 21 20 28 -11 25 20 -7 -20 -20 -20 -20 -20 -20 -20 -20 -20 -20 -20 -20 -20 -20 -20 -20 -20 -20 -20 -20 -20 -20 -20 -20 -20 -20 -20 -20 -20
-18 -20 -8 -20 7 12 -5 -20 3 -20 1 8 27 22 33 22 18 26 -9 -20 -20 -20 -20 -20 -20 -20 -20 -20 -20 -20 -20 -20 -20 -20 -20 -20 -20 -20 -20 -20 -20 -20 -20 -20 -20 -20 -20
-20 -20 -20 -20 -20 -2 8 13 -10 -20 2 15 1 28 23 26 31 31 26 -20 -17 11 1 -20 -20 -20 -20 -20 -20 -20 -4 -18 -20 -20 -20 -20 -20 -20 -20 -20 -20 -20 -20 -20 -20 -20 -20
2 -7 -20 -20 -20 -14 4 8 -2 -20 -7 8 -6 8 28 -3 17 5 24 16 -10 8 24 -0 -20 -20 -20 -20 -20 -20 -20 -20 -20 -20 -20 -20 -20 -20 -20 -4 -20 -20 -20 -20 -20 -20 -20
-1 -3 6 -20 -20 -20 -7 7 8 -15 -0 15 16 14 27 11 23 2 -7 -2 25 26 30 8 -20 -20 -20 -15 -16 -7 -20 -19 -20 -20 -20 -9 -18 -20 11 6 -20 -20 -20 -20 -20 -20 -20
-3 5 -5 -1 5 -19 -20 -20 -20 -20 14 18 10 20 29 17 -9 18 27 26 26 13 16 19 -20 -20 -20 -6 25 12 17 -19 -20 -20 6 1 -20 -19 -18 7 -20 -20 -20 -20 -20 -20 -20
-5 -3 -0 -9 14 7 -20 -15 -20 -20 -20 18 -19 18 21 13 -20 -18 25 -9 9 13 23 -14 -20 -20 -20 -19 16 19 1 8 -9 -20 -20 2 -20 -20 -20 3 -19 -20 -20 -20 -20 -20 -20
-4 12 -10 -1 15 11 -20 2 -20 -18 -20 4 1 -20 18 -16 -11 -20 -7 34 22 27 8 -20 -20 -20 -20 -10 9 14 15 -17 -20 -20 -20 -20 -15 -19 -9 -17 -17 -19 -20 -20 -20 -20 -20
-20 11 -11 -9 -15 -5 6 -5 -20 -19 -4 12 10 -20 17 22 -1 -20 -4 -15 27 26 25 -20 -20 -20 -20 -20 -20 -20 -20 -20 -20 -20 -19 -20 -20 -20 -20 -19 3 -20 -20 -17 -20 -20 13

GFSGBSN_prec_radar_171.txt.gz
Reflectivity
3 -1 -9 -10 -11 -10 -11 -12 -20 0 13 11 8 10 -20 -12 -20 -20 -20 -20 -20 -20 -20 -20 -20 -20 -20 -20 -20 -20 -20 -20 -20 -20 -20 -20 -20 -20 -20 -20 -20 -20 -20 -20 -20 -20 -20
15 16 13 10 6 11 14 15 14 15 15 14 8 11 4 5 -20 -20 -20 -20 -20 -20 -20 -20 -20 -20 -20 -20 -20 -20 -20 -20 -20 -20 -20 -20 -20 -20 -20 -20 -20 -20 -20 -20 -20 -20 -20
-20 -20 -8 -20 -3 -2 -19 -8 6 15 11 12 14 5 -14 -20 -20 -20 -20 -20 -20 -20 -20 -20 -20 -20 -20 -20 -20 -20 -20 -20 -20 -20 -20 -20 -20 -20 -20 -20 -20 -20 -20 -20 -20 -20 -20
-20 -20 -20 -20 3 3 -17 -20 -14 12 14 6 16 11 -10 -20 -20 -20 -20 -20 -20 -20 -20 -20 -20 -20 -20 -20 -20 -20 -20 -20 -20 -20 -20 -20 -20 -20 -20 -20 -20 -20 -20 -20 -20 -20 -20
-20 -20 -20 3 9 10 -4 2 6 -5 -8 -20 8 -11 -6 -20 -20 -20 -20 -20 -20 -20 -20 -20 -20 -20 -20 -20 -20 -20 -20 -20 -20 -20 -20 -20 -20 -20 -20 -20 -20 -20 -20 -20 -20 -20 -20
-20 -20 -20 -20 2 9 11 10 11 10 0 -0 -20 -18 -18 -20 -20 -20 -20 -20 -20 -20 -20 -20 -20 -20 -20 -20 -20 -20 -20 -20 -20 -20 -20 -20 -20 -20 -20 -20 -20 -20 -20 -20 -20 -20 -20
-20 -20 -20 -20 -20 -20 -20 -11 -14 -20 -20 -20 -20 -20 -20 -20 -20 -20 -20 -20 -20 -20 -20 -20 -20 -20 -20 -20 -20 -20 -20 -20 -20 -20 -20 -20 -20 -20 -20 -20 -20 -20 -20 -20 -20 -20 -20
-20 -20 -20 -20 -20 -20 -20 -20 -20 -20 -20 -20 -20 -20 -20 -20 -20 -20 -20 -20 -20 -20 -20 -20 -20 -20 -20 -20 -20 -20 -20 -20 -20 -20 -20 -20 -20 -20 -20 -20 -20 -20 -20 -20 -20 -20 -20
-20 -16 -16 -20 -20 -20 -20 -20 -20 -20 -20 -20 -20 -20 -20 -20 -20 -20 -20 -20 -20 -20 -20 -20 -20 -20 -20 -20 -20 -20 -20 -20 -20 -20 -20 -20 -20 -20 -20 -20 -20 -20 -20 -20 -20 -20 -20
-20 -20 -18 -1 -20 -19 1 -20 -20 -20 -20 -20 -20 -20 -20 -20 -20 -20 -20 -20 -20 -20 -20 -20 -20 -20 -20 -20 -20 -20 -20 -20 -20 -20 -20 -20 -20 -20 -20 -20 -20 -20 -20 -20 -20 -20 -20
-20 -20 -10 -12 -20 -20 -20 -20 -20 -20 -20 -20 -20 -20 -20 -20 -20 -20 -20 -20 -20 -20 -20 -20 -20 -20 -20 -20 -20 -20 -20 -20 -20 -20 -20 -20 -20 -20 -20 -20 -20 -20 -20 -20 -20 -20 -20
-20 -20 -20 -20 -20 -15 -19 -20 -17 -20 -20 -20 -20 -20 -20 -20 -20 -20 -20 -20 -20 -20 -20 -20 -20 -20 -20 -20 -20 -20 -20 -20 -20 -20 -20 -20 -20 -20 -20 -20 -20 -20 -20 -20 -20 -20 -20
-20 -20 -20 -20 -20 -20 -20 -9 -20 -20 -20 -20 -20 -20 -20 -20 -20 -20 -20 -20 -20 -20 -20 -20 -20 -20 -20 -20 -20 -20 -20 -20 -20 -20 -20 -20 -20 -20 -20 -20 -20 -20 -20 -20 -20 -20 -20
-20 -20 -20 -20 -20 -20 -20 -20 -20 -20 -20 -2 -6 -20 -20 -20 -20 -20 -20 -20 -20 -20 -20 -20 -20 -20 -20 -20 -20 -20 -20 -20 -20 -20 -20 -20 -20 -20 -20 -20 -20 -20 -20 -20 -20 -20 -20
-2 7 3 -15 -19 -20 -20 -20 -20 -20 -20 -5 22 -7 -20 -20 -20 -20 -20 -20 -20 -20 -20 -20 -20 -20 -20 -20 -20 -20 -20 -20 -20 -20 -20 -20 -20 -20 -20 -20 -20 -20 -20 -20 -20 -20 -20
5 -6 -8 -10 -20 -20 -20 -20 -20 -20 -20 -16 15 -20 14 -20 -20 -20 -20 -20 -20 -20 -20 -20 -20 -20 -20 -20 -20 -20 -20 -20 -20 -20 -20 -20 -20 -20 -20 -20 -20 -20 -20 -20 -20 -20 -20
-2 -19 -18 -20 -20 -20 -20 -20 -20 -20 -20 -2 -18 9 1 -20 -20 -8 -20 -20 -20 -20 -20 -20 -20 -20 -20 -20 -20 -20 -20 -20 -20 -20 -20 -20 -20 -20 -20 -20 -20 -20 -20 -20 -20 -20 -20
-1 -3 -20 -14 -13 -20 -20 -20 -20 -19 -20 -3 -20 13 1 -19 -20 -13 -20 -20 -20 -20 -20 -20 -20 -20 -20 -20 -20 -20 -20 -20 -20 -20 -20 -20 -20 -20 -20 -20 -20 -20 -20 -20 -20 -20 -20
-20 -20 -20 -20 -20 -20 -20 -20 -20 -20 -18 -19 -9 -4 -9 14 0 -20 -20 -20 -20 -20 -20 -20 -20 -20 -20 -20 -20 -20 -20 -20 -20 -20 -20 -20 -20 -20 -20 -20 -20 -20 -20 -20 -20 -20 -20
-20 -20 -20 -12 -8 -8 -20 -20 10 -20 -0 14 15 11 15 28 -1 0 -8 -20 -20 -20 -20 -20 -20 -20 -20 -20 -20 -20 -20 -20 -20 -20 -20 -20 -20 -20 -20 -20 -20 -20 -20 -20 -20 -20 -20
-20 -20 -20 -20 -20 -15 -10 -20 -19 -5 -20 17 32 7 -13 21 11 -6 -20 -20 -20 -20 -20 -20 -20 -20 -12 -18 -20 -20 -20 -20 -20 -20 -20 -20 -20 -20 -20 -20 -20 -20 -20 -20 -20 -20 -20
-0 4 -2 -20 -20 -20 11 12 -20 -10 -20 10 23 14 11 -13 28 27 2 -2 -20 -20 5 -14 -20 -20 4 -13 -20 -20 -20 -20 -20 -20 -20 -20 -20 -20 -20 -20 -20 -20 -20 -20 -20 -20 -20
-20 -20 -20 -20 -20 -20 -20 -20 12 -9 13 -6 3 6 31 24 -20 14 29 -10 -3 7 28 -8 8 -6 -20 -19 -14 -20 -20 -20 -20 -20 -20 -1 -10 -17 -20 -20 -20 -20 -20 -20 -20 -20 -20
-8 -19 -13 4 -20 -20 -20 -20 -20 10 18 -20 -19 22 24 12 15 5 14 8 11 17 28 10 16 17 10 -20 -20 -20 -20 -20 -20 -20 -1 20 -13 -19 -5 5 5 -20 -20 -20 -20 -20 -20
-2 -20 -20 -4 6 8 4 9 -20 -14 6 10 -17 19 16 5 3 3 3 -19 -15 14 19 21 6 19 34 22 -9 -14 -20 -20 -20 -20 -20 -14 11 15 9 1 -20 -20 -20 -20 -20 -20 -20
-20 -20 -20 -18 2 3 -20 -15 -20 -20 -20 20 13 18 21 14 -20 -18 -20 -2 2 12 18 -15 1 20 29 13 -17 3 1 -2 -20 -20 -19 3 9 18 7 14 1 -20 -20 -20 -20 -20 -20
-20 -20 -13 3 -2 -8 -20 -20 -20 -17 -20 15 13 17 15 17 -20 -4 -0 -12 -12 -7 -15 -20 -20 6 15 -7 13 6 23 10 23 6 5 -2 -9 -12 -11 -6 -9 -20 -11 -20 -20 -20 -20
-20 -20 -20 -2 -2 14 10 -20 -20 -9 -11 -10 -1 -12 17 3 -20 -20 -14 8 4 21 14 2 23 23 10 6 11 -15 -20 1 13 -10 -17 -0 9 -20 -19 3 -6 -19 -20 7 -20 -20 -20
-20 5 -8 -20 12 14 17 9 -7 -12 -3 12 15 -20 21 17 -16 -20 -20 -20 -19 1 27 43 30 -0 -17 -18 -16 -20 10 -18 -20 -20 -20 -20 -20 -20 -20 -20 -20 -20 -19 3 -15 -20 -20

GFSGBSN_prec_radar_177.txt.gz
Reflectivity
-20 -20 -20 -20 -20 -20 -20 -20 -17 -5 2 -20 -20 -20 -20 -20 -20 -20 -20 -20 -20 -20 -20 -20 -20 -20 -20 -20 -20 -20 -20 -20 -20 -20 -20 -20 -20 -20 -20 -20 -20 -20 -20 -20 -20 -20 -20
-20 -20 -20 -20 -20 -20 -20 -20 -20 -19 -20 -20 -19 -20 -20 -20 -20 -20 -20 -20 -20 -20 -20 -20 -20 -20 -20 -20 -20 -20 -20 -20 -20 -20 -20 -20 -20 -20 -20 -20 -20 -20 -20 -20 -20 -20 -20
-20 -20 -16 -17 -20 -20 -20 -20 -20 -20 -20 -20 -20 -20 -20 -20 -20 -20 -20 -20 -20 -20 -20 -20 -20 -20 -20 -20 -20 -20 -20 -20 -20 -20 -20 -20 -20 -20 -20 -20 -20 -20 -20 -20 -20 -20 -20
-0 -18 -20 -20 -20 -20 -20 -20 -10 -20 -15 -20 -20 -20 -20 -20 -20 -20 -20 -20 -20 -20 -20 -20 -20 -20 -20 -20 -20 -20 -20 -20 -20 -20 -20 -20 -20 -20 -20 -20 -20 -20 -20 -20 -20 -20 -20
-11 -20 -20 -20 -20 -20 -20 -20 -20 -20 -20 -20 -20 -20 -20 -20 -20 -20 -20 -20 -20 -20 -20 -20 -20 -20 -20 -20 -20 -20 -20 -20 -20 -20 -20 -20 -20 -20 -20 -20 -20 -20 -20 -20 -20 -20 -20
-20 -20 -20 -20 -20 -20 -20 -20 -20 -20 -20 -20 -20 -20 -20 -20 -20 -20 -20 -20 -20 -20 -20 -20 -20 -20 -20 -20 -20 -20 -20 -20 -20 -20 -20 -20 -20 -20 -20 -20 -20 -20 -20 -20 -20 -20 -20
-20 -20 -20 -20 -20 -20 -20 -20 -20 -20 -20 -20 -20 -20 -20 -20 -20 -20 -20 -20 -20 -20 -20 -20 -20 -20 -20 -20 -20 -20 -20 -20 -20 -20 -20 -20 -20 -20 -20 -20 -20 -20 -20 -20 -20 -20 -20
-20 -20 -20 -20 -20 -20 -20 -20 -20 -20 -20 -20 -20 -20 -20 -20 -20 -20 -20 -20 -20 -20 -20 -20 -20 -20 -20 -20 -20 -20 -20 -20 -20 -20 -20 -20 -20 -20 -20 -20 -20 -20 -20 -20 -20 -20 -20
18 -1 -20 -20 -20 -20 -20 -20 -20 -20 -20 -20 -20 -20 -20 -20 -20 -20 -20 -20 -20 -20 -20 -20 -20 -20 -20 -20 -20 -20 -20 -20 -20 -20 -20 -20 -20 -20 -20 -20 -20 -20 -20 -20 -20 -20 -20
20 18 14 -20 -18 -20 -20 -20 -20 -20 -20 -20 -20 -20 -20 -20 -20 -20 -20 -20 -20 -20 -20 -20 -20 -20 -20 -20 -20 -20 -20 -20 -20 -20 -20 -20 -20 -20 -20 -20 -20 -20 -20 -20 -20 -20 -20
21 15 18 19 -20 -18 -20 -20 -20 -20 -20 -20 -20 -20 -20 -20 -20 -20 -20 -20 -20 -20 -20 -20 -20 -20 -20 -20 -20 -20 -20 -20 -20 -20 -20 -20 -20 -20 -20 -20 -20 -20 -20 -20 -20 -20 -20
29 20 22 20 -1 22 -18 -20 -20 -2 -17 -20 -20 -20 -20 -20 -20 -20 -20 -20 -20 -20 -20 -20 -20 -20 -20 -20 -20 -20 -20 -20 -20 -20 -20 -20 -20 -20 -20 -20 -20 -20 -20 -20 -20 -20 -20
30 28 19 19 19 12 -20 -20 -20 -18 5 -7 -20 -20 -20 -20 -20 -20 -20 -20 -20 -20 -20 -20 -20 -20 -20 -20 -20 -20 -20 -20 -20 -20 -20 -20 -20 -20 -20 -20 -20 -20 -20 -20 -20 -20 -20
29 29 29 21 1 -20 -20 -20 -20 -20 -20 -20 -20 -20 -20 -20 -20 -20 -20 -20 -20 -20 -20 -20 -20 -20 -20 -20 -20 -20 -20 -20 -20 -20 -20 -20 -20 -20 -20 -20 -20 -20 -20 -20 -20 -20 -20
32 28 16 -8 -16 11 9 -8 -20 -20 -20 -20 -20 -19 -20 11 -20 -20 -20 -20 -20 -20 -20 -20 -20 -20 -20 -20 -20 -20 -20 -20 -20 -20 -20 -20 -20 -20 -20 -20 -20 -20 -20 -20 -20 -20 -20
17 16 11 9 7 6 9 2 -3 -20 -20 -19 -1 7 -4 -20 -20 -20 -2 -20 -20 -20 -20 -20 -20 -7 -6 -19 -10 -20 -20 -20 -20 -20 -20 -20 -20 -20 -20 -20 -20 -20 -20 -20 -20 -20 -20
22 17 14 12 10 1 -7 -6 2 -7 -18 -20 11 5 -5 -4 4 16 12 -13 -3 -7 -20 -20 -20 -20 -20 -20 -20 -20 -20 -20 -20 -20 -20 -20 -20 -20 -20 -20 -20 -20 -20 -20 -20 -20 -20
12 11 11 9 7 11 9 -2 -3 -4 -5 -11 12 9 -5 -3 17 8 -0 -20 -20 -20 -20 -20 -20 -20 -20 -20 -20 -20 -20 -20 -20 -20 -20 -20 -20 -20 -20 -20 5 -3 -9 11 15 -18 -15
14 12 7 3 2 2 -1 -3 -15 -20 -20 18 13 10 -7 18 16 14 2 3 -20 -17 -20 -20 -20 -15 -20 -17 -8 -19 -20 -20 -20 -20 -20 -18 -18 1 -20 -20 -20 5 -18 -19 -20 -20 -20
0 1 -14 -11 -20 -20 -20 -20 -20 -20 -20 5 8 15 18 9 10 15 10 6 11 -9 -17 -19 0 -10 8 9 -1 11 -20 -20 -15 -20 -20 -5 2 -4 4 -20 20 16 16 -5 7 14 -6
-20 -20 -20 -20 -20 -20 -20 -20 -20 -20 -20 -1 15 6 14 -9 7 15 19 11 -6 0 1 16 19 -5 18 21 15 -6 7 -20 -20 -18 -20 -1 -0 -15 -16 -14 -17 17 10 4 10 7 8
-20 -20 -20 -20 -20 -20 -20 -20 -20 -20 -20 -1 10 10 18 -9 2 23 21 18 15 1 5 30 16 5 18 31 18 9 13 17 1 3 -11 -13 -7 -13 -15 -20 -20 -1 -17 -20 1 2 -8
-20 -20 -20 -20 -20 -20 -20 -20 -20 -20 -20 11 4 18 5 -14 3 14 -1 20 16 19 -12 14 25 31 29 -3 11 24 18 14 17 15 18 10 17 20 -3 -20 -3 8 -20 -20 -20 -20 -17
-20 -20 -20 -20 -6 -7 -20 -20 -20 -20 -20 -4 16 20 21 -7 -15 -10 -7 -9 11 19 16 9 9 24 4 17 16 20 15 -10 -5 -20 -11 11 16 21 16 20 19 -14 -20 -20 -20 -20 -15
-20 -20 -20 2 -20 -20 -20 -2 -20 -20 -20 -5 11 20 19 7 -17 -20 -20 -6 -9 10 17 6 14 13 22 3 38 9 -0 -6 -20 -20 -20 -20 16 20 23 16 -20 -20 -17 -1 -20 -17 -20
-20 -20 -2 -20 -5 -6 -20 -20 -20 -3 -20 -18 -1 23 23 21 -20 -20 -2 -20 -20 -20 -20 -20 -19 2 31 11 34 16 8 11 12 18 -20 -20 -20 16 19 20 15 -20 8 -15 -3 -20 -19
-5 -20 -20 -20 -20 -20 -20 -20 -14 -20 -20 -9 -20 9 18 27 -20 -20 9 20 19 -4 -0 22 20 2 23 16 19 13 10 -13 17 1 -2 18 10 16 19 15 19 -19 13 -20 -20 -17 -20
-20 -20 -20 -4 -20 -20 -20 -20 -20 -20 -20 -1 -20 -20 23 19 -7 -7 17 20 0 17 13 26 1 22 14 22 19 19 14 18 16 -20 13 -1 18 22 20 24 20 -9 -19 -13 -20 -11 -20
-20 -20 -20 -1 -20 -20 -20 -20 -20 -20 -20 -2 21 -20 -16 24 -20 -10 3 -17 17 11 9 10 7 19 24 19 28 39 12 15 3 17 6 -0 -18 15 -20 20 8 13 -20 -20 -20 -18 -20